Weather in Stockholm

Sweden     59°19′29″N   18°04′16″E
temp.,
°C
wind,
m/s
gust,
m/s
humid.,
%
clouds,
%
prec.,
mm/h
press.,
hPa
HPBL,
m
27 june, mon
mon2723:00+19sse37825 0.0 1019151
02:00+18sse26845 0.0 1020120
05:00+18s268256 0.0 1019138
08:00+24s36515 0.0 1019418
11:00+28sse463973 0.0 10191271
14:00+28sse574417 0.0 10191189
17:00+27se57470 0.0 1018777
20:00+23se48610 0.0 1018326
28 june, tue
tue2823:00+19se39820 0.0 1018193
02:00+18se39850 0.0 1018185
05:00+20se312770 0.0 1018303
08:00+24sse59635 0.0 1017431
11:00+27sse595196 0.0 1017836
14:00+24se4862100 0.0 1017456
17:00+23ssw366692 0.1 1016484
20:00+19nw587285 0.3 1018415
29 june, wed
wed2923:00+17nw4778100 0.0 1019346
02:00+16wnw378499 0.0 1020285
05:00+15nw367998 0.0 1020223
08:00+18nw3459100 0.0 1020397
11:00+22nnw3444100 0.0 1020742
14:00+25nnw233965 0.0 1019927
17:00+25ese224617 0.0 10181041
20:00+22e236625 0.0 1018311
30 june, thu
thu3023:00+17e249322 0.0 1018113
02:00+17ne129496 0.0 101850
05:00+17nne239391 0.0 1018110
08:00+21ene237494 0.0 1018449
11:00+25ese3360100 0.0 10171003
14:00+24sse4563100 0.0 1018804
17:00+19se368663 0.9 1018255
20:00+20se358130 0.9 1017368
1 july, fri
fri123:00+18e379677 0.0 1017292
02:00+18ese2598100 2.0 1016342
05:00+18e249999 0.6 1016200
08:00+20ese3595100 0.6 1015329
11:00+21sse359095 0.7 1015462
14:00+25sse467140 0.7 1015668
17:00+26sse476422 0.0 1014647
20:00+24s377296 0.1 1014399